COSMOS 566

Satellite information

Favourite Embed

Satellite Type and Status

PAYLOADIN ORBIT

Key statistics

Satellite COSMOS 566 at a glance.

Uptime

19182

Days in orbit

Revolutions

≈ 12.5

Per day

Orbit

LEO

Low Earth Orbit

Inclination

74.0

Latest

Satellite identification and parameters

Extended collection of information and parameters for COSMOS 566.

Object identification

Identified? True

Debris? False

Object name: COSMOS 566

International designator: 1973-037C

Object number (NORAD): 6677

Object ID (CCSDS): 6677

Country: COMMONWEALTH OF INDEPENDENT STATES (CIS)

Current information (Y/N): Y

RCS size: MEDIUM

Orbital parameters

Period: 115.043 minutes

Inclination: 74.0173 deg

SMA: 7835.524 km

Apoapsis: 1481.842 km

Periapsis: 1432.936 km

RAAN: 121.9293 deg

Eccentricy: 0.00312076

Argument of periapsis: 32.968 deg

Mean anomaly: 341.5905 deg

Mean motion: 12.51701336 rev/day

Mean motion (dot): 0.00000005 rev/day2

B* drag term: 0.00013562062 1/REarth

Two-line elements (TLE)

Creation date: Dec. 14, 2025, 3:07 a.m.

Reference frame: TEME

Reference center: EARTH

Epoch: Dec. 13, 2025, 3:26 p.m. UTC

TLE line 0: 0 COSMOS 566

TLE line 1: 1 06677U 73037C 25347.64313706 .00000005 00000-0 13562-3 0 9992

TLE line 2: 2 06677 74.0173 121.9293 0031208 32.9680 341.5905 12.51701336399253

Live tracking on map

Real-time ground track for satellite COSMOS 566.

In-orbit conjunctions

A list of the most updated potential collisions computed for object COSMOS 566.

Target Orbit TCA Probability of collision Miss distance Type
FENGYUN 1C DEB SSO 2024-12-08 01:06:32 0.0001082662 538.0 (m) DEBRIS
THORAD DELTA 1 DEB SSO 2024-07-15 05:29:36 0.001568301 33.0 (m) DEBRIS

Associated space launch

Military communications satellites

COSMOS 566 was lifted into orbit during the mission ‘Kosmos-3M | Strela-1M 41-48’, on board a Kosmos-3M space rocket.

The launch took place on June 8, 1973, 3:50 p.m. from 132/1 (132L).

For more information about the launch, click the button.

Launch to space Kosmos-3M | Strela-1M 41-48
Kosmos-3M | Strela-1M 41-48

Agency: N/A

Status: Launch Successful

Launch date: June 8, 1973, 3:50 p.m. UTC

Rocket: Kosmos-3M

Launch pad: 132/1 (132L)

Location: Plesetsk Cosmodrome, Russian Federation

...

Latest news about this satellite

There are no fresh news available about this satellite. Check back as we update our databases every day.


Newsletter sign-up

Weekly statistics, charts and insights to help you stay on top of the space industry.